CW4185 Weather Reports


time (UTC)temp
F
wind
direction
speed
knots
gust
knots
rain 1hr
in
rain 24hr
in
rain mn
in
humidity
%
barometer
mb
20260505022649 68 152 3.5 7.0 0.00 0.00 0.00 65 1013.9
20260505022147 69 149 5.2 7.8 0.00 0.00 0.00 65 1013.5
20260505021649 69 141 5.2 7.8 0.00 0.00 0.00 64 1013.9
20260505021149 69 145 2.6 6.1 0.00 0.00 0.00 64 1013.9
20260505020650 68 156 3.5 8.7 0.00 0.00 0.00 64 1013.5
20260505020146 69 162 4.3 6.1 0.00 0.00 0.00 65 1013.5
20260505015647 69 160 2.6 4.3 0.00 0.00 0.00 64 1013.5
20260505015146 69 145 2.6 6.1 0.00 0.00 0.00 63 1013.5
20260505014646 69 153 2.6 7.8 0.00 0.00 0.00 63 1013.5
20260505014146 69 150 3.5 5.2 0.00 0.00 0.00 62 1013.2
20260505013647 69 146 2.6 6.1 0.00 0.00 0.00 62 1013.5
20260505013147 69 136 2.6 6.1 0.00 0.00 0.00 62 1013.2
20260505012646 69 154 3.5 4.3 0.00 0.00 0.00 62 1013.5
20260505012146 70 163 2.6 3.5 0.00 0.00 0.00 61 1013.5
20260505011648 70 164 4.3 5.2 0.00 0.00 0.00 61 1013.5
20260505011147 70 158 4.3 5.2 0.00 0.00 0.00 61 1013.5
20260505010647 70 166 4.3 5.2 0.00 0.00 0.00 60 1013.5
20260505010148 70 140 4.3 7.0 0.00 0.00 0.00 59 1013.5
20260505005648 70 156 4.3 6.1 0.00 0.00 0.00 59 1013.5
20260505005148 71 158 2.6 5.2 0.00 0.00 0.00 58 1013.5
20260505004650 71 142 2.6 5.2 0.00 0.00 0.00 58 1013.5
20260505004146 71 149 5.2 6.1 0.00 0.00 0.00 58 1013.5
20260505003648 71 166 5.2 7.0 0.00 0.00 0.00 57 1013.5
20260505003147 71 138 3.5 7.0 0.00 0.00 0.00 57 1013.5
20260505002646 71 161 5.2 7.0 0.00 0.00 0.00 57 1013.5
20260505002146 72 159 2.6 7.0 0.00 0.00 0.00 56 1013.5
20260505001646 72 159 3.5 7.0 0.00 0.00 0.00 54 1013.9
20260505001147 72 177 3.5 7.0 0.00 0.00 0.00 54 1013.9
20260505000646 72 164 6.1 7.8 0.00 0.00 0.00 54 1013.5
20260505000153 72 153 4.3 7.0 0.00 0.00 0.00 53 1013.5
20260504235646 72 159 3.5 7.0 0.00 0.00 0.00 52 1013.5
20260504235146 73 153 5.2 9.6 0.00 0.00 0.00 52 1013.5
20260504234647 73 149 5.2 8.7 0.00 0.00 0.00 51 1013.5
20260504234146 73 170 6.1 8.7 0.00 0.00 0.00 51 1013.9
20260504233647 73 182 6.1 9.6 0.00 0.00 0.00 51 1013.9
20260504233148 73 127 5.2 8.7 0.00 0.00 0.00 52 1013.9
20260504232646 73 161 7.0 8.7 0.00 0.00 0.00 50 1013.9
20260504232146 74 173 7.0 9.6 0.00 0.00 0.00 49 1013.9
20260504231157 74 172 6.1 8.7 0.00 0.00 0.00 49 1014.2
20260504230646 74 165 7.0 12.2 0.00 0.00 0.00 48 1014.2
20260504230147 74 195 7.8 12.2 0.00 0.00 0.00 48 1014.2
20260504225647 74 186 7.0 9.6 0.00 0.00 0.00 48 1014.2
20260504225147 74 173 8.7 9.6 0.00 0.00 0.00 47 1014.2
20260504224646 74 163 5.2 10.4 0.00 0.00 0.00 47 1014.2
20260504224147 74 150 5.2 11.3 0.00 0.00 0.00 46 1014.2
20260504223646 74 164 3.5 9.6 0.00 0.00 0.00 46 1014.2
20260504223146 75 153 7.8 11.3 0.00 0.00 0.00 45 1014.2
20260504222647 74 130 2.6 6.1 0.00 0.00 0.00 45 1014.2
20260504222146 75 165 8.7 11.3 0.00 0.00 0.00 45 1014.2
20260504221646 75 172 7.8 10.4 0.00 0.00 0.00 45 1014.2
20260504221147 75 174 7.0 9.6 0.00 0.00 0.00 44 1014.6
20260504220646 75 169 6.1 9.6 0.00 0.00 0.00 43 1014.6
20260504220147 75 164 7.0 9.6 0.00 0.00 0.00 44 1014.6
20260504215646 75 186 4.3 11.3 0.00 0.00 0.00 43 1014.6
20260504215146 76 180 6.1 7.8 0.00 0.00 0.00 43 1014.6
20260504214646 75 149 7.0 11.3 0.00 0.00 0.00 43 1014.2
20260504214147 75 179 7.8 10.4 0.00 0.00 0.00 44 1014.2
20260504213646 75 165 5.2 11.3 0.00 0.00 0.00 44 1014.2
20260504213146 75 169 9.6 11.3 0.00 0.00 0.00 44 1014.6
20260504212647 75 143 7.8 10.4 0.00 0.00 0.00 44 1014.6
20260504212147 75 168 9.6 11.3 0.00 0.00 0.00 44 1014.6
20260504211647 75 207 7.0 8.7 0.00 0.00 0.00 43 1014.9
20260504211147 75 180 6.1 8.7 0.00 0.00 0.00 43 1014.9
20260504210648 75 195 7.0 11.3 0.00 0.00 0.00 42 1014.6
20260504210147 75 154 9.6 10.4 0.00 0.00 0.00 42 1014.6
20260504205647 76 160 8.7 11.3 0.00 0.00 0.00 41 1014.9
20260504205150 75 180 10.4 12.2 0.00 0.00 0.00 40 1014.9
20260504204647 75 159 6.1 11.3 0.00 0.00 0.00 40 1014.9
20260504204147 75 181 7.0 9.6 0.00 0.00 0.00 41 1015.2
20260504203646 75 164 11.3 12.2 0.00 0.00 0.00 40 1015.2
20260504203146 75 180 7.8 12.2 0.00 0.00 0.00 40 1015.2
20260504202650 76 155 6.1 13.0 0.00 0.00 0.00 38 1015.2
20260504202146 75 120 3.5 7.0 0.00 0.00 0.00 40 1015.2
20260504201647 76 169 6.1 10.4 0.00 0.00 0.00 38 1015.6
20260504201146 76 176 3.5 11.3 0.00 0.00 0.00 38 1015.6
20260504200647 75 246 7.0 10.4 0.00 0.00 0.00 39 1015.6
20260504200146 76 178 6.1 9.6 0.00 0.00 0.00 39 1015.9
20260504195646 77 180 7.8 12.2 0.00 0.00 0.00 39 1015.6
20260504195147 75 42 4.3 12.2 0.00 0.00 0.00 39 1015.9
20260504194646 76 240 4.3 13.0 0.00 0.00 0.00 37 1015.9
20260504194146 76 202 5.2 11.3 0.00 0.00 0.00 38 1015.9
20260504193646 75 185 3.5 10.4 0.00 0.00 0.00 38 1016.3
20260504193147 76 186 4.3 9.6 0.00 0.00 0.00 40 1015.9
20260504192647 76 175 7.8 10.4 0.00 0.00 0.00 39 1015.9
20260504192146 76 194 10.4 11.3 0.00 0.00 0.00 39 1015.9
20260504191648 75 159 8.7 13.9 0.00 0.00 0.00 40 1016.3
20260504191146 75 193 7.0 11.3 0.00 0.00 0.00 40 1015.9
20260504190647 75 169 7.8 12.2 0.00 0.00 0.00 40 1016.3
20260504190149 76 170 8.7 14.8 0.00 0.00 0.00 40 1016.6
20260504185646 75 171 4.3 9.6 0.00 0.00 0.00 40 1016.6
20260504185147 75 183 11.3 14.8 0.00 0.00 0.00 40 1016.6
20260504184646 75 171 6.1 11.3 0.00 0.00 0.00 40 1016.3
20260504184147 75 169 6.1 10.4 0.00 0.00 0.00 40 1016.9
20260504183647 75 183 5.2 10.4 0.00 0.00 0.00 41 1016.6
20260504183147 75 159 7.0 14.8 0.00 0.00 0.00 40 1016.9
20260504182647 75 205 5.2 10.4 0.00 0.00 0.00 42 1016.9
20260504182146 75 179 8.7 14.8 0.00 0.00 0.00 41 1016.9
20260504181647 75 177 6.1 11.3 0.00 0.00 0.00 42 1016.9
20260504181148 74 213 6.1 11.3 0.00 0.00 0.00 42 1016.6
20260504180647 74 197 5.2 9.6 0.00 0.00 0.00 42 1016.6
20260504180147 75 185 7.0 13.0 0.00 0.00 0.00 42 1016.9
20260504175647 75 195 7.8 13.0 0.00 0.00 0.00 43 1016.9
20260504175147 75 195 7.0 13.0 0.00 0.00 0.00 44 1016.6
20260504174647 75 219 8.7 9.6 0.00 0.00 0.00 43 1016.9
20260504174146 75 205 6.1 13.0 0.00 0.00 0.00 41 1017.3
20260504173646 75 158 7.0 8.7 0.00 0.00 0.00 44 1016.9
20260504173147 75 168 2.6 6.1 0.00 0.00 0.00 45 1016.6
20260504172647 75 207 5.2 6.1 0.00 0.00 0.00 44 1016.9
20260504172147 75 202 6.1 9.6 0.00 0.00 0.00 44 1016.9
20260504171647 75 173 2.6 7.8 0.00 0.00 0.00 45 1016.9
20260504171148 75 161 5.2 9.6 0.00 0.00 0.00 46 1016.9
20260504170650 74 152 7.8 12.2 0.00 0.00 0.00 45 1016.9
20260504170146 75 140 4.3 11.3 0.00 0.00 0.00 46 1016.9
20260504160148 74 165 5.2 7.0 0.00 0.00 0.00 46 1017.3
20260504151147 73 153 5.2 7.8 0.00 0.00 0.00 49 1017.9
20260504150647 72 185 4.3 8.7 0.00 0.00 0.00 46 1017.9
20260504150146 72 168 4.3 7.8 0.00 0.00 0.00 46 1017.6
20260504141149 71 194 3.5 4.3 0.00 0.00 0.00 56 1017.9
20260504140647 70 166 2.6 3.5 0.00 0.00 0.00 59 1017.9
20260504140146 70 152 0.9 3.5 0.00 0.00 0.00 56 1017.6
20260504130648 67 223 2.6 2.6 0.00 0.00 0.00 66 1017.9
20260504130146 66 180 0.0 1.7 0.00 0.00 0.00 68 1017.6
20260504120148 60 162 0.9 0.9 0.00 0.00 0.00 82 1017.3
20260504110646 58 141 0.0 1.7 0.00 0.00 0.00 85 1017.3
20260504110147 58 145 0.9 0.9 0.00 0.00 0.00 84 1016.9
20260504100149 60 193 0.9 1.7 0.00 0.00 0.00 79 1017.3
20260504081646 60 210 0.9 0.9 0.00 0.00 0.00 79 1017.3
20260504081147 60 235 0.9 0.9 0.00 0.00 0.00 79 1016.9
20260504080647 60 174 0.9 1.7 0.00 0.00 0.00 78 1017.3
20260504080147 60 229 0.0 0.9 0.00 0.00 0.00 78 1017.3
20260504070148 62 166 2.6 3.5 0.00 0.00 0.00 76 1017.6
20260504060146 63 197 1.7 1.7 0.00 0.00 0.00 72 1018.3
20260504050646 64 171 2.6 4.3 0.00 0.00 0.00 66 1019.0
20260504050146 64 210 1.7 2.6 0.00 0.00 0.00 66 1019.0
20260504045646 64 203 1.7 2.6 0.00 0.00 0.00 66 1019.0
20260504045147 64 209 2.6 3.5 0.00 0.00 0.00 66 1019.0
20260504044646 64 205 0.9 2.6 0.00 0.00 0.00 66 1019.0
20260504044146 64 199 2.6 2.6 0.00 0.00 0.00 66 1019.0
20260504043647 64 199 1.7 2.6 0.00 0.00 0.00 65 1019.0
20260504043146 64 212 1.7 3.5 0.00 0.00 0.00 66 1019.0
20260504042647 64 155 2.6 4.3 0.00 0.00 0.00 67 1019.0
20260504042146 64 221 2.6 3.5 0.00 0.00 0.00 67 1019.0
20260504041646 64 220 4.3 5.2 0.00 0.00 0.00 67 1019.0
20260504041146 64 226 3.5 7.0 0.00 0.00 0.00 68 1019.3
20260504040646 64 205 4.3 5.2 0.00 0.00 0.00 69 1019.0
20260504040146 65 216 3.5 5.2 0.00 0.00 0.00 68 1019.0
20260504035647 65 222 5.2 7.8 0.00 0.00 0.00 68 1019.3
20260504035147 65 252 2.6 5.2 0.00 0.00 0.00 67 1019.0
20260504034646 65 203 3.5 3.5 0.00 0.00 0.00 66 1019.0
20260504034149 65 176 2.6 4.3 0.00 0.00 0.00 66 1019.0
20260504033647 65 199 3.5 4.3 0.00 0.00 0.00 67 1019.0
20260504033146 65 177 1.7 4.3 0.00 0.00 0.00 67 1019.0
20260504032651 65 168 3.5 4.3 0.00 0.00 0.00 67 1019.0
20260504032147 66 163 0.9 2.6 0.00 0.00 0.00 66 1019.0
20260504031647 66 180 1.7 2.6 0.00 0.00 0.00 66 1019.0
20260504031146 65 169 1.7 2.6 0.00 0.00 0.00 66 1019.0
20260504030646 66 161 2.6 2.6 0.00 0.00 0.00 66 1019.0
20260504030147 66 151 1.7 2.6 0.00 0.00 0.00 65 1019.0
20260504025647 66 155 2.6 2.6 0.00 0.00 0.00 64 1019.0
20260504025147 66 141 2.6 2.6 0.00 0.00 0.00 63 1018.6
20260504024646 66 167 0.9 1.7 0.00 0.00 0.00 62 1019.0
20260504024151 67 44 0.0 2.6 0.00 0.00 0.00 60 1019.0
20260504023649 67 146 2.6 2.6 0.00 0.00 0.00 59 1018.6
20260504023146 67 117 0.0 1.7 0.00 0.00 0.00 59 1018.6